[[{"header":{"parameterUnit":"m.s-1","parameterCategory":1,"la1":30.2992,"la2":30.254,"lo1":-89.0895,"lo2":-89.0443,"dy":0.0025,"dx":0.0025,"nx":19,"ny":19,"refTime":"2026-04-26T03:00:00:Z","depth":0,"parameterNumber":2,"parameterNumberName":"U-component_of_WINDS"},"data":[0,0,0,-3.2097,-3.21,-3.2244,-3.2245,-3.243,-3.2432,0,0,0,0,0,0,0,0,0,0,0,-3.2054,-3.2055,-3.2097,-3.21,-3.2244,-3.2245,-3.243,-3.2432,0,0,0,0,0,0,0,0,0,0,0,-3.2054,-3.2055,-3.2057,-3.2101,-3.2244,-3.2245,-3.2429,-3.232,0,0,0,0,0,0,0,0,0,0,-3.218,-3.214,-3.2055,-3.2057,-3.2102,-3.2244,-3.2245,-3.2315,-3.2327,-3.2365,0,-3.2398,0,-3.2418,-3.2444,-3.2445,0,0,0,-3.21,-3.213,-3.2169,-3.2057,-3.2103,-3.2244,-3.2179,-3.2322,-3.2335,-3.2381,-3.24,-3.2407,-3.2421,-3.2445,-3.2446,-3.2663,-3.2664,0,0,-3.2093,-3.208,-3.216,-3.2178,-3.2156,-3.2175,-3.2184,-3.233,-3.2351,-3.2401,-3.2412,-3.2424,-3.2446,-3.2448,-3.2662,-3.2663,0,0,0,-3.207,-3.2074,-3.211,-3.2171,-3.2197,-3.2179,-3.219,-3.2344,-3.2357,-3.2414,-3.2426,-3.2447,-3.245,-3.2661,-3.2662,-3.2699,0,0,0,-3.2065,-3.2061,-3.2106,-3.21,-3.2194,-3.2272,-3.22,-3.2347,-3.2364,-3.2425,-3.2448,-3.2452,-3.2659,-3.2661,-3.2696,-3.2718,0,0,0,-3.2045,-3.2059,-3.208,-3.2099,-3.2161,-3.227,-3.2291,-3.2351,-3.2371,-3.2445,-3.2452,-3.2659,-3.2661,-3.2693,-3.2713,-3.2771,0,0,0,-3.202,-3.211,-3.208,-3.2186,-3.216,-3.2292,-3.229,-3.239,-3.2457,-3.2448,-3.266,-3.2662,-3.2692,-3.271,-3.2768,-3.2817,-3.2836,0,0,-3.2127,-3.2123,-3.2187,-3.2164,-3.2298,-3.2271,-3.2412,-3.2486,-3.2504,-3.2609,-3.2614,-3.2697,-3.2713,-3.2771,-3.2952,-3.2967,0,0,0,-3.2216,-3.2262,-3.23,-3.2364,-3.2423,-3.2475,-3.2529,-3.2556,-3.2646,-3.2555,-3.2735,-3.2745,-3.2779,-3.2803,-3.2816,-3.2846,-3.2673,-3.2673,-3.2672,-3.2349,-3.2368,-3.2475,-3.2512,-3.2574,-3.2629,-3.2682,-3.2728,-3.2729,-3.2772,-3.2802,-3.291,-3.2938,-3.2947,-3.2979,-3.2831,-3.2831,-3.2831,-3.2831,-3.2507,-3.2574,-3.2575,-3.2678,-3.2698,-3.2786,-3.2843,-3.2841,-3.2926,-3.2888,-3.2919,-3.2875,-3.2964,-3.2992,-3.2834,-3.2834,-3.2833,-3.2833,-3.2833,-3.2594,-3.263,-3.2663,-3.2758,-3.2829,-3.2865,-3.2946,-3.2962,-3.2978,-3.3009,-3.3043,-3.3042,-3.3043,-3.3024,-3.3025,-3.3025,-3.3025,-3.3026,-3.3026,-3.2672,-3.2708,-3.2774,-3.2845,-3.2889,-3.2949,-3.3007,-3.305,-3.3103,-3.3108,-3.3109,-3.3105,-3.2969,-3.2934,-3.3032,-3.3031,-3.303,-3.3029,-3.3029,-3.2822,-3.2791,-3.2894,-3.2938,-3.3023,-3.3093,-3.3114,-3.3202,-3.324,-3.328,-3.3272,-3.3169,-3.3165,-3.3155,-3.3125,-3.3267,-3.3267,-3.3267,-3.3267,-3.2895,-3.2896,-3.3005,-3.3074,-3.3144,-3.3173,-3.3289,-3.3336,-3.3379,-3.3405,-3.3387,-3.335,-3.3339,-3.3342,-3.3328,-3.3301,-3.3484,-3.3484,-3.3484,-3.2989,-3.2997,-3.3092,-3.3134,-3.3203,-3.3262,-3.3371,-3.3451,-3.3494,-3.3493,-3.3425,-3.3416,-3.3356,-3.3336,-3.3331,-3.3309,-3.3259,0,0]},{"header":{"parameterUnit":"m.s-1","parameterCategory":1,"la1":30.2992,"la2":30.254,"lo1":-89.0895,"lo2":-89.0443,"dy":0.0025,"dx":0.0025,"nx":19,"ny":19,"refTime":"2026-04-26T03:00:00:Z","depth":0,"parameterNumber":3,"parameterNumberName":"V-component_of_WINDS"},"data":[0,0,0,3.3723,3.3725,3.3812,3.3813,3.3913,3.3914,0,0,0,0,0,0,0,0,0,0,0,3.3692,3.3693,3.3723,3.3725,3.3812,3.3813,3.3913,3.3914,0,0,0,0,0,0,0,0,0,0,0,3.3692,3.3693,3.3693,3.3725,3.3812,3.3813,3.3913,3.385,0,0,0,0,0,0,0,0,0,0,3.3767,3.3735,3.3692,3.3693,3.3726,3.3812,3.3813,3.3847,3.3854,3.387,0,3.3884,0,3.3901,3.392,3.3921,0,0,0,3.3728,3.3729,3.3757,3.3693,3.3726,3.3812,3.3774,3.3851,3.3859,3.3878,3.3885,3.3889,3.3902,3.3921,3.3921,3.4006,3.4007,0,0,3.3723,3.3705,3.3752,3.3762,3.375,3.3771,3.3776,3.3856,3.3861,3.3886,3.3892,3.3904,3.3922,3.3922,3.4006,3.4007,0,0,0,3.3707,3.3701,3.3728,3.3758,3.3774,3.3773,3.378,3.3858,3.3868,3.3893,3.3905,3.3922,3.3923,3.4006,3.4006,3.4004,0,0,0,3.3704,3.3692,3.3725,3.3715,3.3773,3.3818,3.3779,3.3863,3.3872,3.3905,3.3922,3.3924,3.4006,3.4006,3.4003,3.4005,0,0,0,3.3688,3.369,3.3702,3.3714,3.3751,3.3817,3.3832,3.3865,3.388,3.3921,3.3924,3.4006,3.4006,3.4003,3.4005,3.4024,0,0,0,3.3665,3.3696,3.3701,3.3741,3.3751,3.3815,3.3832,3.388,3.3915,3.3923,3.4006,3.4006,3.4003,3.4004,3.4023,3.4037,3.4041,0,0,3.3694,3.3699,3.3723,3.3731,3.3791,3.3803,3.3862,3.3909,3.3928,3.3979,3.3981,3.4004,3.4005,3.4024,3.4069,3.4073,0,0,0,3.3727,3.3744,3.3764,3.3798,3.3837,3.387,3.3911,3.3929,3.3973,3.3951,3.4016,3.4017,3.4029,3.4036,3.4039,3.4051,3.4009,3.4009,3.4009,3.3741,3.3767,3.3809,3.3845,3.3878,3.3921,3.3949,3.398,3.3993,3.4008,3.4024,3.4049,3.4057,3.4059,3.4071,3.4032,3.4032,3.4032,3.4032,3.3787,3.3817,3.3837,3.3886,3.3911,3.3951,3.3994,3.4002,3.4043,3.4039,3.405,3.4044,3.4062,3.4073,3.4032,3.4032,3.4032,3.4032,3.4032,3.38,3.3819,3.3842,3.3895,3.3932,3.3967,3.4006,3.4027,3.4046,3.4058,3.4077,3.4077,3.408,3.4065,3.4066,3.4066,3.4066,3.4066,3.4066,3.3805,3.3832,3.3863,3.3909,3.3934,3.397,3.4014,3.4039,3.4072,3.4084,3.4084,3.4096,3.4059,3.405,3.4067,3.4067,3.4067,3.4067,3.4067,3.3844,3.3839,3.3888,3.3914,3.3969,3.4006,3.4033,3.4082,3.4105,3.4123,3.4134,3.4103,3.4108,3.4106,3.4099,3.4128,3.4128,3.4128,3.4128,3.3856,3.3861,3.3917,3.3957,3.3999,3.4029,3.4082,3.4116,3.4151,3.4167,3.4165,3.4157,3.4154,3.4161,3.4158,3.4151,3.4193,3.4193,3.4193,3.3881,3.3892,3.3935,3.3971,3.4016,3.4054,3.4106,3.4149,3.4186,3.4197,3.418,3.4177,3.4164,3.4158,3.4167,3.4162,3.415,0,0]}]]